Location: Brunsbüttel
(52.3892°N, 10.6138°E)
Time: 21:22:15
(UTC+00:00)

Cosmos 2237 Rocket - Pass Details

Date: 19 May 2025
Orbit: 834 x 849 km, 71.0° (Epoch: 15 June)

Event Time Altitude Azimuth Distance (km) Brightness Sun altitude
Rises 23:40:14 0° 329° (NNW) 3,400 6.2 -17.4°
Reaches altitude 10° 23:42:57 10° 339° (NNW) 2,464 5.6 -17.3°
Maximum altitude 23:48:01 33° 43° (NE) 1,394 3.9 -17.2°
Drops below altitude 10° 23:53:04 10° 107° (ESE) 2,462 4.5 -17.1°
Sets 23:55:46 0° 117° (ESE) 3,396 5.2 -17.1°
